Regional Weather Roundup
Issued by NWS

Home | Current Version | Previous Version | Graphics & Text | Print | Product List | Glossary On
Versions: 1 2 3 4 5 6 7 8 9 10 11 12 13 14 15 16 17 18 19 20 21 22 23 24 25 26 27
000
ASUS45 KSLC 241110
RWRUT

UTAH REGIONAL WEATHER ROUNDUP
NATIONAL WEATHER SERVICE SALT LAKE CITY UT
400 AM MST SAT FEB 24 2018

UTZ001>011-023>025-241200-

NORTHERN UTAH

CITY           SKY/WX    TMP DP  RH WIND       PRES   REMARKS
BRIGHAM CITY   CLOUDY    14   8  76 CALM      30.15F
HILL AFB       MOCLDY    12   9  85 S3        30.12F FOG
LOGAN          CLOUDY    10   3  73 CALM      30.13F
OGDEN          PTCLDY    14  11  87 S9        30.13F WCI   2
SALT LAKE CITY PTCLDY    15  10  80 SE8       30.16S WCI   4
WENDOVER       CLOUDY    20   7  57 NE3       30.17F
HEBER CITY       N/A      3  -2  78 CALM      30.07F
WEST JORDAN    PTCLDY     9   5  82 CALM      30.15S

$$

UTZ011>015-024>027-241200-

CENTRAL/NORTHEAST UTAH

CITY           SKY/WX    TMP DP  RH WIND       PRES   REMARKS
PROVO AIRPORT  MOCLDY     9   5  85 S6        30.18F WCI  -1
MOAB/CANYONLAN CLEAR     20   7  57 CALM      30.04R
DELTA            N/A      0  -4  85 S5        30.17S VSB 1/4 WCI -10
PRICE          CLEAR     12   2  64 CALM      30.00F
RICHFIELD      CLEAR     12   5  73 S5        30.15S WCI   4
VERNAL         PTCLDY     4   0  83 NW7       30.00S WCI  -8

$$

UTZ013>016-019>022-027-241200-

SOUTHERN UTAH

CITY           SKY/WX    TMP DP  RH WIND       PRES   REMARKS
BRYCE CANYON   MOCLDY    -6 -10  83 W9        30.02F WCI -23
CEDAR CITY     MOCLDY     4   0  83 CALM      30.13S
MILFORD        PTCLDY     2  -1  88 SW9       30.17S WCI -13
ST GEORGE      MOSUNNY   26  22  84 S5        30.25R WCI  20
HANKSVILLE     CLEAR     21   5  49 W10       30.11S WCI  10
KANAB          CLEAR     10   7  85 N2        30.20R
BLANDING         N/A     19  13  74 N7        30.07R WCI  10

$$

REGIONAL REPORTS     COLORADO/ARIZONA

CITY           SKY/WX    TMP DP  RH WIND       PRES   REMARKS
CRAIG, CO      CLOUDY    13   9  84 W5        29.94F WCI   5
GRAND JUNCTION PTCLDY    22  15  75 NW9       30.01R WCI  12
RIFLE, CO      CLOUDY    23  11  60 NW16      29.96R WCI  10
MONTROSE, CO   CLOUDY    21  13  71 NW3       29.99R
CORTEZ, CO     MOCLDY    15  11  83 CALM      30.00R
COLORADO CITY    N/A     14  10  85 CALM      30.19R
PAGE, AZ       PTCLDY    28   8  43 W8        30.11S WCI  20
GRAND CANYON   PTCLDY    -6  -9  86 NE3       30.08S
KINGMAN, AZ    CLEAR     24  21  88 E6        30.20F WCI  17
FLAGSTAFF, AZ  CLEAR      6   3  87 E5        30.04S WCI  -3

$$

REGIONAL REPORTS    NEVADA/IDAHO/WYOMING

CITY           SKY/WX    TMP DP  RH WIND       PRES   REMARKS
LAS VEGAS, NV  CLEAR     37   6  27 N8        30.27R WCI  31
ELY, NY        PTCLDY     0  -5  79 S10       30.15F WCI -16
ELKO, NV       CLOUDY    15   9  76 SW5       30.18F WCI   8
POCATELLO, ID  CLOUDY    21  10  62 SW22      30.07F WCI   5
BURLEY, ID     PTCLDY    21   9  59 W12G21    30.08F WCI   9
EVANSTON, WY   FLURRIES   6   3  87 SW10      29.96S WCI  -9
ROCK SPRINGS,  CLEAR      6   0  76 SW24G31   29.90F WCI -16

$$




USA.gov is the U.S. government's official web portal to all federal, state and local government web resources and services.